This is the latest recevied weather packets stored in our database for station/object UR7D-12. If no packets are shown the sender has not sent any weather packets the latest 10 day(s).
| Time | Temp. | Humidity | Pressure | Rain* | Wind** | Luminosity | Snow |
|---|---|---|---|---|---|---|---|
| 1777976482 | 22.78° C | 33% | 989.1 hPa | 0 mm | - | - | - |
| 1777975881 | 22.78° C | 34% | 989.2 hPa | 0 mm | - | - | - |
| 1777974980 | 22.78° C | 35% | 989.4 hPa | 0 mm | - | - | - |
| 1777974680 | 22.78° C | 35% | 989.5 hPa | 0 mm | - | - | - |
| 1777974079 | 22.78° C | 34% | 989.4 hPa | 0 mm | - | - | - |
| 1777973779 | 22.78° C | 36% | 989.5 hPa | 0 mm | - | - | - |
| 1777973479 | 22.78° C | 36% | 989.5 hPa | 0 mm | - | - | - |
| 1777973178 | 22.78° C | 38% | 989.5 hPa | 0 mm | - | - | - |
| 1777972876 | 22.22° C | 39% | 989.6 hPa | 0 mm | - | - | - |
| 1777971976 | 22.22° C | 40% | 989.8 hPa | 0 mm | - | - | - |
| 1777971675 | 21.67° C | 39% | 989.8 hPa | 0 mm | - | - | - |
| 1777971375 | 21.67° C | 40% | 989.7 hPa | 0 mm | - | - | - |
| 1777971075 | 21.11° C | 41% | 989.7 hPa | 0 mm | - | - | - |
| 1777970774 | 21.11° C | 41% | 989.8 hPa | 0 mm | - | - | - |
| 1777970474 | 20.56° C | 43% | 989.8 hPa | 0 mm | - | - | - |
| 1777970175 | 20.56° C | 42% | 989.9 hPa | 0 mm | - | - | - |
| 1777969875 | 20.56° C | 42% | 989.9 hPa | 0 mm | - | - | - |
| 1777969573 | 20.56° C | 46% | 990 hPa | 0 mm | - | - | - |
| 1777969275 | 20° C | 47% | 990 hPa | 0 mm | - | - | - |
| 1777968673 | 18.89° C | 45% | 990 hPa | 0 mm | - | - | - |
| 1777968073 | 18.89° C | 47% | 990.1 hPa | 0 mm | - | - | - |
| 1777967471 | 18.33° C | 49% | 990.2 hPa | 0 mm | - | - | - |
| 1777966871 | 17.78° C | 50% | 990.1 hPa | 0 mm | - | - | - |
| 1777965970 | 17.22° C | 53% | 990.1 hPa | 0 mm | - | - | - |
| 1777965070 | 16.67° C | 52% | 990.1 hPa | 0 mm | - | - | - |
* Rain latest hour (hover to see other rain measurements)
** Current wind speed in m/s (hover to see current wind gust speed)